FW7622 Weather Reports


Display with metric or nautical units.
time (UTC)temp
F
wind
direction
speed
MPH
gust
MPH
rain 1hr
in
rain 24hr
in
rain mn
in
humidity
%
barometer
mb
20260901203655 87 173 1.0 2.0 0.00 0.00 0.00 61 1012.5
20260901203150 86 158 0.0 0.0 0.00 0.00 0.00 61 1012.2
20260901202649 85 159 2.0 2.0 0.00 0.00 0.00 63 1012.9
20260901202145 85 157 0.0 0.0 0.00 0.00 0.00 62 1012.5
20260901201641 86 171 0.0 1.0 0.00 0.00 0.00 64 1012.5
20260901201140 86 154 2.0 2.0 0.00 0.00 0.00 63 1012.5
20260901200640 87 181 0.0 1.0 0.00 0.00 0.00 61 1012.5
20260901200135 87 190 1.0 2.0 0.00 0.00 0.00 60 1012.2
20260901195633 87 131 0.0 0.0 0.00 0.00 0.00 61 1012.2
20260901195132 87 203 0.0 1.0 0.00 0.00 0.00 64 1012.5
20260901194628 85 179 1.0 1.0 0.00 0.00 0.00 64 1012.9
20260901194123 85 184 0.0 0.0 0.00 0.00 0.00 65 1012.5
20260901193619 86 198 1.0 1.0 0.00 0.00 0.00 62 1012.9
20260901193118 86 276 2.0 2.0 0.00 0.00 0.00 62 1012.5
20260901192614 87 184 0.0 1.0 0.00 0.00 0.00 65 1012.9
20260901192109 87 199 0.0 1.0 0.00 0.00 0.00 60 1012.9
20260901191605 86 162 1.0 1.0 0.00 0.00 0.00 61 1012.9
20260901191101 86 143 1.0 1.0 0.00 0.00 0.00 59 1012.9
20260901190556 86 143 1.0 1.0 0.00 0.00 0.00 59 1012.9
20260901190055 86 143 1.0 1.0 0.00 0.00 0.00 59 1012.9
20260901185554 87 182 0.0 1.0 0.00 0.00 0.00 60 1012.9
20260901185053 87 178 0.0 0.0 0.00 0.00 0.00 60 1013.2
20260901184549 88 208 1.0 2.0 0.00 0.00 0.00 60 1013.2
20260901184044 87 181 0.0 0.0 0.00 0.00 0.00 63 1013.2
20260901183544 88 211 0.0 1.0 0.00 0.00 0.00 62 1013.2
20260901183039 87 235 2.0 2.0 0.00 0.00 0.00 60 1013.2
20260901182536 87 184 1.0 2.0 0.00 0.00 0.00 61 1013.2
20260901182035 87 215 1.0 1.0 0.00 0.00 0.00 61 1013.2
20260901181535 87 195 1.0 1.0 0.00 0.00 0.00 60 1013.2
20260901181029 87 181 1.0 2.0 0.00 0.00 0.00 59 1013.2
20260901180527 86 250 1.0 2.0 0.00 0.00 0.00 62 1013.5
20260901180022 86 349 1.0 1.0 0.00 0.00 0.00 62 1013.2
20260901175516 86 204 1.0 2.0 0.00 0.00 0.00 61 1013.5
20260901175011 85 183 3.0 3.0 0.00 0.00 0.00 64 1013.5
20260901174507 84 210 1.0 2.0 0.00 0.00 0.00 66 1013.5
20260901174002 85 283 0.0 1.0 0.00 0.00 0.00 64 1013.5
20260901173457 85 245 2.0 2.0 0.00 0.00 0.00 63 1013.5
20260901172953 84 148 1.0 1.0 0.00 0.00 0.00 64 1013.9
20260901172448 84 201 2.0 3.0 0.00 0.00 0.00 64 1013.9
20260901171946 84 178 0.0 1.0 0.00 0.00 0.00 63 1013.5
20260901171445 84 176 2.0 2.0 0.00 0.00 0.00 62 1013.5
20260901170944 84 130 2.0 3.0 0.00 0.00 0.00 63 1013.9
20260901170439 84 249 0.0 1.0 0.00 0.00 0.00 62 1013.5
20260901165938 84 200 1.0 1.0 0.00 0.00 0.00 69 1013.9
20260901165433 83 170 0.0 0.0 0.00 0.00 0.00 67 1013.5
20260901164929 84 163 0.0 1.0 0.00 0.00 0.00 66 1013.9
20260901164424 83 155 2.0 3.0 0.00 0.00 0.00 70 1013.5
20260901163919 83 154 0.0 0.0 0.00 0.00 0.00 72 1013.9
20260901163414 83 155 0.0 1.0 0.00 0.00 0.00 70 1013.9
20260901162908 82 168 0.0 0.0 0.00 0.00 0.00 72 1013.5
20260901162408 81 250 1.0 1.0 0.00 0.00 0.00 72 1013.9
20260901161902 82 152 1.0 1.0 0.00 0.00 0.00 71 1013.9
20260901161401 82 180 0.0 1.0 0.00 0.00 0.00 75 1013.9
20260901160856 81 218 1.0 1.0 0.00 0.00 0.00 74 1013.9
20260901160353 82 134 0.0 1.0 0.00 0.00 0.00 76 1013.9
20260901155851 82 157 1.0 2.0 0.00 0.00 0.00 71 1013.9
20260901155346 81 179 0.0 0.0 0.00 0.00 0.00 73 1014.2
20260901154843 80 193 0.0 0.0 0.00 0.00 0.00 75 1014.2
20260901154342 79 186 0.0 0.0 0.00 0.00 0.00 75 1014.2
20260901153836 80 175 1.0 1.0 0.00 0.00 0.00 75 1014.2
20260901153326 79 162 0.0 0.0 0.00 0.00 0.00 78 1014.2
20260901152824 79 173 0.0 1.0 0.00 0.00 0.00 78 1014.2
20260901152324 78 159 0.0 1.0 0.00 0.00 0.00 79 1014.2
20260901151820 77 174 0.0 0.0 0.00 0.00 0.00 82 1013.9
20260901151314 77 182 0.0 0.0 0.00 0.00 0.00 83 1014.2
20260901150814 76 181 0.0 0.0 0.00 0.00 0.00 87 1014.2
20260901150312 76 195 1.0 1.0 0.00 0.00 0.00 89 1014.5
20260901145809 74 173 0.0 0.0 0.00 0.00 0.00 90 1014.2
20260901145306 74 183 0.0 0.0 0.00 0.00 0.00 90 1014.5
20260901144759 73 190 0.0 0.0 0.00 0.00 0.00 88 1014.2
20260901144255 74 181 0.0 0.0 0.00 0.00 0.00 91 1014.5
20260901143750 74 167 0.0 0.0 0.00 0.00 0.00 91 1014.2
20260901143246 73 150 0.0 0.0 0.00 0.00 0.00 91 1014.5
20260901142742 72 176 0.0 0.0 0.00 0.00 0.00 93 1014.5
20260901142241 71 176 0.0 0.0 0.00 0.00 0.00 95 1014.5
20260901141737 70 187 0.0 0.0 0.00 0.00 0.00 96 1014.5
20260901141236 69 184 0.0 0.0 0.00 0.00 0.00 99 1014.5
20260901140736 68 181 0.0 0.0 0.00 0.00 0.00 99 1014.5
20260901140234 68 180 0.0 0.0 0.00 0.00 0.00 99 1014.5
20260901135730 68 173 0.0 0.0 0.00 0.00 0.00 99 1014.2
20260901135229 67 172 0.0 0.0 0.00 0.00 0.00 99 1014.2
20260901134726 67 172 0.0 0.0 0.00 0.00 0.00 99 1014.5
20260901134226 66 171 0.0 0.0 0.00 0.00 0.00 99 1014.5
20260901133725 66 168 0.0 0.0 0.00 0.00 0.00 99 1014.2
20260901133224 66 168 0.0 0.0 0.00 0.00 0.00 99 1014.2
20260901132723 65 168 0.0 0.0 0.00 0.00 0.00 99 1014.2
20260901132218 64 166 0.0 0.0 0.00 0.00 0.00 99 1014.2
20260901131713 64 173 0.0 0.0 0.00 0.00 0.00 99 1014.2
20260901131212 62 173 0.0 0.0 0.00 0.00 0.00 99 1014.5
20260901130708 61 173 0.0 0.0 0.00 0.00 0.00 99 1014.2
20260901130207 60 180 0.0 0.0 0.00 0.00 0.00 99 1014.2
20260901125705 59 198 0.0 0.0 0.00 0.00 0.00 99 1014.2
20260901125200 58 189 0.0 0.0 0.00 0.00 0.00 99 1014.2
20260901124655 58 173 0.0 0.0 0.00 0.00 0.00 99 1013.9
20260901124149 58 173 0.0 0.0 0.00 0.00 0.00 99 1013.9
20260901123643 57 174 0.0 0.0 0.00 0.00 0.00 99 1013.9
20260901123143 56 172 0.0 0.0 0.00 0.00 0.00 99 1013.9
20260901122642 55 172 0.0 0.0 0.00 0.00 0.00 99 1013.9
20260901122136 55 172 0.0 0.0 0.00 0.00 0.00 99 1013.9
20260901121631 55 172 0.0 0.0 0.00 0.00 0.00 99 1013.9
20260901121127 55 172 0.0 0.0 0.00 0.00 0.00 99 1013.5
20260901120626 55 172 0.0 0.0 0.00 0.00 0.00 99 1013.5
20260901120121 55 171 0.0 0.0 0.00 0.00 0.00 99 1013.5
20260901115617 55 164 0.0 0.0 0.00 0.00 0.00 99 1013.5
20260901115114 55 178 0.0 0.0 0.00 0.00 0.00 99 1013.5
20260901114610 55 178 0.0 0.0 0.00 0.00 0.00 99 1013.5
20260901114109 55 178 0.0 0.0 0.00 0.00 0.00 99 1013.9
20260901113608 55 179 0.0 0.0 0.00 0.00 0.00 99 1013.5
20260901113103 55 179 0.0 0.0 0.00 0.00 0.00 99 1013.2
20260901112603 55 179 0.0 0.0 0.00 0.00 0.00 99 1013.2
20260901112057 55 179 0.0 0.0 0.00 0.00 0.00 99 1013.2
20260901111556 55 179 0.0 0.0 0.00 0.00 0.00 99 1013.2
20260901111055 55 179 0.0 0.0 0.00 0.00 0.00 99 1013.2
20260901110551 55 176 0.0 0.0 0.00 0.00 0.00 99 1013.2
20260901110046 55 177 0.0 0.0 0.00 0.00 0.00 99 1012.9
20260901105543 55 171 0.0 0.0 0.00 0.00 0.00 99 1012.9
20260901105042 55 162 0.0 0.0 0.00 0.00 0.00 99 1012.9
20260901104539 55 166 0.0 0.0 0.00 0.00 0.00 99 1013.2
20260901104033 55 166 0.0 0.0 0.00 0.00 0.00 99 1013.2
20260901103528 55 166 0.0 0.0 0.00 0.00 0.00 99 1013.2
20260901103024 55 166 0.0 0.0 0.00 0.00 0.00 99 1012.9
20260901102524 0 0.0 0.0 0.00 0.00 0.00 1013.2
20260901102018 0 0.0 0.0 0.00 0.00 0.00 1013.2
20260901101514 0 0.0 0.0 0.00 0.00 0.00 1012.9
20260901101013 0 0.0 0.0 0.00 0.00 0.00 1012.9
20260901100508 0 0.0 0.0 0.00 0.00 0.00 1012.9
20260901100008 0 0.0 0.0 0.00 0.00 0.00 1012.9
20260901095506 0 0.0 0.0 0.00 0.00 0.00 1012.9
20260901095004 0 0.0 0.0 0.00 0.00 0.00 1012.9
20260901094459 0 0.0 0.0 0.00 0.00 0.00 1013.2
20260901093958 0 0.0 0.0 0.00 0.00 0.00 1012.9
20260901093458 0 0.0 0.0 0.00 0.00 0.00 1012.9
20260901092953 0 0.0 0.0 0.00 0.00 0.00 1012.9
20260901092449 0 0.0 0.0 0.00 0.00 0.00 1012.5
20260901091945 0 0.0 0.0 0.00 0.00 0.00 1012.9
20260901091440 0 0.0 0.0 0.00 0.00 0.00 1012.9
20260901090935 0 0.0 0.0 0.00 0.00 0.00 1012.9
20260901090434 0 0.0 0.0 0.00 0.00 0.00 1012.9
20260901085930 0 0.0 0.0 0.00 0.00 0.00 1012.9
20260901085426 0 0.0 0.0 0.00 0.00 0.00 1012.9
20260901084922 0 0.0 0.0 0.00 0.00 0.00 1012.9
20260901084418 0 0.0 0.0 0.00 0.00 0.00 1012.9
20260901083914 0 0.0 0.0 0.00 0.00 0.00 1012.9
20260901083414 0 0.0 0.0 0.00 0.00 0.00 1012.9
20260901082912 0 0.0 0.0 0.00 0.00 0.00 1012.9
20260901082408 0 0.0 0.0 0.00 0.00 0.00 1012.9
20260901081902 0 0.0 0.0 0.00 0.00 0.00 1012.9
20260901081357 0 0.0 0.0 0.00 0.00 0.00 1013.2
20260901080857 0 0.0 0.0 0.00 0.00 0.00 1013.2
20260901080352 59 183 0.0 0.0 0.00 0.00 0.00 99 1013.2
20260901075846 59 183 0.0 0.0 0.00 0.00 0.00 99 1013.2
20260901075341 59 183 0.0 0.0 0.00 0.00 0.00 99 1013.2
20260901074836 59 183 0.0 0.0 0.00 0.00 0.00 99 1013.5
20260901074331 59 183 0.0 0.0 0.00 0.00 0.00 99 1013.2
20260901073826 59 183 0.0 0.0 0.00 0.00 0.00 99 1013.2
20260901073322 59 183 0.0 0.0 0.00 0.00 0.00 99 1013.2
20260901072818 59 183 0.0 0.0 0.00 0.00 0.00 99 1013.2
20260901072317 59 183 0.0 0.0 0.00 0.00 0.00 99 1013.2
20260901071813 59 183 0.0 0.0 0.00 0.00 0.00 99 1013.2
20260901071311 59 183 0.0 0.0 0.00 0.00 0.00 99 1013.2
20260901070810 59 183 0.0 0.0 0.00 0.00 0.00 99 1013.5
20260901070306 61 170 0.0 0.0 0.00 0.00 0.00 99 1013.2
20260901065805 61 170 0.0 0.0 0.00 0.00 0.00 99 1013.2
20260901065300 61 170 0.0 0.0 0.00 0.00 0.00 99 1013.2
20260901064756 61 170 0.0 0.0 0.00 0.00 0.00 99 1013.2
20260901064252 61 170 0.0 0.0 0.00 0.00 0.00 99 1013.2
20260901063750 61 170 0.0 0.0 0.00 0.00 0.00 99 1012.9
20260901063245 61 170 0.0 0.0 0.00 0.00 0.00 99 1013.2
20260901062741 61 170 0.0 0.0 0.00 0.00 0.00 99 1012.9
20260901062237 61 170 0.0 0.0 0.00 0.00 0.00 99 1013.2
20260901061733 61 170 0.0 0.0 0.00 0.00 0.00 99 1012.9
20260901061232 61 170 0.0 0.0 0.00 0.00 0.00 99 1012.9
20260901060727 61 170 0.0 0.0 0.00 0.00 0.00 99 1012.9
20260901060223 61 170 0.0 0.0 0.00 0.00 0.00 99 1012.9
20260901055718 0 0.0 0.0 0.00 0.00 0.00 1012.9
20260901055215 0 0.0 0.0 0.00 0.00 0.00 1012.9
20260901054711 0 0.0 0.0 0.00 0.00 0.00 1012.9
20260901054208 63 162 0.0 0.0 0.00 0.00 0.00 99 1012.9
20260901053703 63 162 0.0 0.0 0.00 0.00 0.00 99 1012.9
20260901053159 63 162 0.0 0.0 0.00 0.00 0.00 99 1012.5
20260901052654 63 162 0.0 0.0 0.00 0.00 0.00 99 1012.5
20260901052149 63 162 0.0 0.0 0.00 0.00 0.00 99 1012.9
20260901051648 63 162 0.0 0.0 0.00 0.00 0.00 99 1012.5
20260901051148 63 162 0.0 0.0 0.00 0.00 0.00 99 1012.9
20260901050643 63 162 0.0 0.0 0.00 0.00 0.00 99 1012.5
20260901050138 63 162 0.0 0.0 0.00 0.00 0.00 99 1012.2
20260901045638 63 162 0.0 0.0 0.00 0.00 0.00 99 1012.5
20260901045133 63 162 0.0 0.0 0.00 0.00 0.00 99 1012.2
20260901044629 63 162 0.0 0.0 0.00 0.00 0.00 99 1012.2
20260901044125 63 162 0.0 0.0 0.00 0.00 0.00 99 1012.5
20260901043620 65 163 0.0 0.0 0.00 0.00 0.00 99 1012.2
20260901043116 65 163 0.0 0.0 0.00 0.00 0.00 99 1012.5
20260901042615 65 163 0.0 0.0 0.00 0.00 0.00 99 1012.5
20260901042110 65 163 0.0 0.0 0.00 0.00 0.00 99 1012.5
20260901041606 65 163 0.0 0.0 0.00 0.00 0.00 99 1012.5
20260901041101 65 163 0.0 0.0 0.00 0.00 0.00 99 1012.5
20260901040600 65 163 0.0 0.0 0.00 0.00 0.00 99 1012.5
20260901040055 65 163 0.0 0.0 0.00 0.00 0.00 99 1012.5
20260901035553 65 163 0.0 0.0 0.00 0.00 0.00 99 1012.5
20260901035052 65 163 0.0 0.0 0.00 0.00 0.00 99 1012.5
20260901034551 65 163 0.0 0.0 0.00 0.00 0.00 99 1012.2
20260901034051 65 163 0.0 0.0 0.00 0.00 0.00 99 1012.2
20260901033550 66 163 0.0 0.0 0.00 0.00 0.00 99 1012.5
20260901033045 66 163 0.0 0.0 0.00 0.00 0.00 99 1012.2
20260901032544 66 163 0.0 0.0 0.00 0.00 0.00 99 1012.2
20260901032039 66 163 0.0 0.0 0.00 0.00 0.00 99 1012.2
20260901031534 67 163 0.0 0.0 0.00 0.00 0.00 99 1012.5
20260901031030 68 164 0.0 0.0 0.00 0.00 0.00 99 1012.2
20260901030530 68 164 0.0 0.0 0.00 0.00 0.00 99 1012.2
20260901030025 68 164 0.0 0.0 0.00 0.00 0.00 99 1012.2
20260901025519 68 164 0.0 0.0 0.00 0.00 0.00 99 1012.2
20260901025019 68 164 0.0 0.0 0.00 0.00 0.00 99 1012.2
20260901024514 68 164 0.0 0.0 0.00 0.00 0.00 99 1012.2
20260901024013 68 167 0.0 0.0 0.00 0.00 0.00 99 1012.2
20260901023507 68 167 0.0 0.0 0.00 0.00 0.00 99 1012.2
20260901023002 68 167 0.0 0.0 0.00 0.00 0.00 99 1012.2
20260901022457 69 168 0.0 0.0 0.00 0.00 0.00 99 1012.2
20260901021952 69 168 0.0 0.0 0.00 0.00 0.00 99 1012.2
20260901021448 69 167 0.0 0.0 0.00 0.00 0.00 99 1011.8
20260901020943 69 167 0.0 0.0 0.00 0.00 0.00 99 1012.2
20260901020438 69 168 0.0 0.0 0.00 0.00 0.00 99 1012.2
20260901015937 70 168 0.0 0.0 0.00 0.00 0.00 99 1012.2
20260901015434 70 169 0.0 0.0 0.00 0.00 0.00 99 1011.8
20260901014933 70 169 0.0 0.0 0.00 0.00 0.00 99 1011.8
20260901014430 70 171 0.0 0.0 0.00 0.00 0.00 99 1011.8
20260901013925 71 171 0.0 0.0 0.00 0.00 0.00 99 1011.8
20260901013420 71 169 0.0 0.0 0.00 0.00 0.00 99 1011.8
20260901012916 71 190 0.0 0.0 0.00 0.00 0.00 99 1011.8
20260901012411 71 190 0.0 0.0 0.00 0.00 0.00 99 1011.5
20260901011906 72 190 0.0 0.0 0.00 0.00 0.00 99 1011.5
20260901011402 72 190 0.0 0.0 0.00 0.00 0.00 99 1011.5
20260901010900 72 190 0.0 0.0 0.00 0.00 0.00 99 1011.5
20260901010355 73 191 0.0 0.0 0.00 0.00 0.00 99 1011.5
20260901005853 73 191 0.0 0.0 0.00 0.00 0.00 99 1011.5
20260901005348 74 191 0.0 0.0 0.00 0.00 0.00 99 1011.5
20260901004839 75 191 0.0 0.0 0.00 0.00 0.00 99 1011.5
20260901004338 75 191 0.0 0.0 0.00 0.00 0.00 98 1011.1
20260901003832 76 191 0.0 0.0 0.00 0.00 0.00 96 1011.5
20260901003328 76 191 0.0 0.0 0.00 0.00 0.00 95 1011.5
20260901002826 76 191 0.0 0.0 0.00 0.00 0.00 94 1011.1
20260901002321 77 191 0.0 0.0 0.00 0.00 0.00 94 1011.1
20260901001820 77 191 0.0 0.0 0.00 0.00 0.00 94 1011.1
20260901001316 78 191 0.0 0.0 0.00 0.00 0.00 93 1011.1
20260901000811 78 191 0.0 0.0 0.00 0.00 0.00 92 1011.1
20260901000307 79 191 0.0 0.0 0.00 0.00 0.00 90 1011.1
20260831235804 80 191 0.0 0.0 0.00 0.00 0.00 88 1011.1
20260831235301 81 190 0.0 0.0 0.00 0.00 0.00 87 1010.7
20260831234756 82 191 0.0 0.0 0.00 0.00 0.00 86 1011.1
20260831234255 82 190 0.0 0.0 0.00 0.00 0.00 86 1011.1
20260831233751 83 190 0.0 0.0 0.00 0.00 0.00 86 1011.1
20260831233246 83 190 0.0 0.0 0.00 0.00 0.00 85 1011.1
20260831232741 83 190 0.0 0.0 0.00 0.00 0.00 80 1011.1
20260831232237 84 190 0.0 0.0 0.00 0.00 0.00 80 1010.7
20260831231733 84 191 0.0 0.0 0.00 0.00 0.00 80 1011.1
20260831231229 84 186 0.0 0.0 0.00 0.00 0.00 78 1010.7
20260831230724 84 186 0.0 1.0 0.00 0.00 0.00 78 1010.7
20260831230219 85 172 0.0 1.0 0.00 0.00 0.00 75 1010.7
20260831225718 86 146 0.0 0.0 0.00 0.00 0.00 76 1011.1
20260831225214 86 148 1.0 1.0 0.00 0.00 0.00 74 1010.7
20260831224708 86 163 0.0 0.0 0.00 0.00 0.00 75 1011.1
20260831224204 86 147 0.0 1.0 0.00 0.00 0.00 74 1010.7
20260831223659 87 232 0.0 0.0 0.00 0.00 0.00 73 1010.7
20260831223156 87 180 0.0 0.0 0.00 0.00 0.00 71 1010.4
20260831222651 87 202 0.0 0.0 0.00 0.00 0.00 72 1010.4
20260831222147 87 242 1.0 2.0 0.00 0.00 0.00 72 1010.4
20260831221642 88 188 0.0 0.0 0.00 0.00 0.00 71 1010.4
20260831221137 88 231 1.0 1.0 0.00 0.00 0.00 70 1010.4
20260831220632 88 173 2.0 3.0 0.00 0.00 0.00 70 1010.4
20260831220127 88 198 0.0 0.0 0.00 0.00 0.00 70 1010.7
20260831215623 88 279 0.0 1.0 0.00 0.00 0.00 70 1010.7
20260831215118 89 251 3.0 5.0 0.00 0.00 0.00 70 1010.4
20260831214615 89 200 1.0 1.0 0.00 0.00 0.00 72 1010.4
20260831214112 89 174 0.0 1.0 0.00 0.00 0.00 71 1010.4
20260831213608 88 200 2.0 2.0 0.00 0.00 0.00 74 1010.7
20260831213103 88 70 2.0 5.0 0.00 0.00 0.00 73 1010.4
20260831212559 89 227 3.0 3.0 0.00 0.00 0.00 72 1010.4
20260831212055 89 233 1.0 2.0 0.00 0.00 0.00 73 1010.4
20260831211549 89 304 2.0 3.0 0.00 0.00 0.00 74 1010.4
20260831211048 90 200 0.0 0.0 0.00 0.00 0.00 74 1010.4
20260831210544 90 341 2.0 3.0 0.00 0.00 0.00 74 1010.4
20260831210040 90 183 1.0 1.0 0.00 0.00 0.00 74 1010.0
20260831205539 90 206 2.0 2.0 0.00 0.00 0.00 74 1010.0
20260831205035 91 269 2.0 5.0 0.00 0.00 0.00 74 1010.4
20260831204530 90 189 1.0 2.0 0.00 0.00 0.00 75 1010.0
20260831204028 90 36 2.0 2.0 0.00 0.00 0.00 74 1010.0